Salem, OR

12:07 AM PDT on July 25, 2017 (GMT -0700)
McNary

Weather History for KSLE - February, 2013

Change the Weather History Date:

Thursday, February 7, 2013

  Actual Average Record
Temperature  
Mean Temperature 41 °F 42 °F  
Max Temperature 49 °F 51 °F 63 °F (1993)
Min Temperature 33 °F 35 °F 8 °F (1989)
Degree Days  
Heating Degree Days 24 23  
Month to date heating degree days 150 161  
Since 1 July heating degree days 2617 2788  
Cooling Degree Days 0 0  
Month to date cooling degree days 0 0  
Year to date cooling degree days 0 0  
Moisture  
Dew Point 37 °F    
Average Humidity 83    
Maximum Humidity 100    
Minimum Humidity 65    
Precipitation  
Precipitation 0.13 in 0.18 in 2.32 in (1996)
Month to date precipitation 0.35 1.19  
Year to date precipitation 1.98 7.15  
Snow  
Snow 0.00 in - - ()
Month to date snowfall 0.0  
Snow Depth 0.00 in    
Sea Level Pressure  
Sea Level Pressure 30.04 in    
Wind  
Wind Speed 7 mph (SSE)    
Max Wind Speed 18 mph    
Max Gust Speed 23 mph    
Visibility 8 miles    
Events Fog , Rain    
T = Trace of Precipitation, MM = Missing Value Source: NWS Daily Summary

Daily Weather History Graph

Daily Weather History Graph

Search for Another Location

Airport or City:

Trip Planner

Search our weather history database for the weather conditions in past years. The results will help you decide how hot, cold, wet, or windy it might be!

Date:

Astronomy

Feb. 07, 2013 Rise Set
Actual Time 7:23 AM PST 5:29 PM PST
Civil Twilight 6:52 AM PST 6:00 PM PST
Nautical Twilight 6:18 AM PST 6:34 PM PST
Astronomical Twilight 5:44 AM PST 7:08 PM PST
Moon 5:11 AM PST (2/7) 2:56 PM PST (2/7)
Length of Visible Light 11h 07m
Length of Day
10h 05m
Waning Crescent, 8% of the Moon is Illuminated
Feb 7
Waning Crescent
Feb 9
New
Feb 17
First Quarter
Feb 25
Full
Mar 4
Last Quarter

Hourly Weather History & Observations

Time (PST) Temp. Windchill Dew Point Humidity Pressure Visibility Wind Dir Wind Speed Gust Speed Precip Events Conditions
12:56 AM 42.1 °F 36.1 °F 37.9 °F 85% 29.97 in 10.0 mi South 10.4 mph - 0.00 in   Overcast
1:56 AM 42.1 °F 36.6 °F 37.9 °F 85% 29.98 in 10.0 mi SSE 9.2 mph - N/A   Overcast
2:09 AM 42.8 °F 38.6 °F 39.2 °F 87% 29.98 in 10.0 mi SSE 6.9 mph - N/A   Overcast
2:47 AM 41.0 °F 34.3 °F 37.4 °F 87% 29.99 in 10.0 mi SSE 11.5 mph - N/A   Overcast
2:56 AM 41.0 °F 33.5 °F 37.9 °F 89% 30.00 in 10.0 mi South 13.8 mph - N/A   Overcast
3:12 AM 39.2 °F 32.0 °F 37.4 °F 93% 29.99 in 10.0 mi South 11.5 mph - N/A   Scattered Clouds
3:56 AM 39.9 °F 32.9 °F 37.0 °F 89% 30.00 in 10.0 mi South 11.5 mph - N/A   Mostly Cloudy
4:56 AM 39.0 °F 31.4 °F 37.0 °F 93% 30.01 in 10.0 mi South 12.7 mph - N/A   Overcast
5:56 AM 37.9 °F 32.7 °F 36.0 °F 93% 30.01 in 10.0 mi SSE 6.9 mph - N/A   Clear
6:56 AM 37.0 °F 31.6 °F 35.1 °F 93% 30.01 in 10.0 mi SSE 6.9 mph - N/A   Scattered Clouds
7:56 AM 37.0 °F 30.4 °F 36.0 °F 96% 30.01 in 10.0 mi SSE 9.2 mph - N/A   Mostly Cloudy
8:56 AM 42.1 °F 36.6 °F 39.0 °F 89% 30.02 in 10.0 mi South 9.2 mph - N/A   Mostly Cloudy
9:56 AM 43.0 °F 37.7 °F 39.0 °F 86% 30.02 in 10.0 mi SSE 9.2 mph - N/A   Scattered Clouds
10:56 AM 46.0 °F 41.0 °F 39.0 °F 76% 30.03 in 10.0 mi South 10.4 mph - N/A   Mostly Cloudy
11:56 AM 46.0 °F 40.6 °F 37.0 °F 71% 30.02 in 10.0 mi South 11.5 mph - N/A   Mostly Cloudy
12:56 PM 48.9 °F - 37.0 °F 64% 30.00 in 10.0 mi South 11.5 mph - N/A   Mostly Cloudy
1:56 PM 46.9 °F - 36.0 °F 66% 29.99 in 10.0 mi SSW 9.2 mph - N/A   Mostly Cloudy
2:02 PM 46.4 °F 40.4 °F 35.6 °F 66% 29.99 in 10.0 mi SSW 13.8 mph 19.6 mph N/A   Mostly Cloudy
2:56 PM 46.9 °F - 37.9 °F 71% 29.99 in 10.0 mi SSE 8.1 mph - 0.00 in   Mostly Cloudy
3:56 PM 46.0 °F 40.6 °F 39.0 °F 76% 30.01 in 10.0 mi SSE 11.5 mph - 0.00 in Rain Light Rain
4:56 PM 42.1 °F - 37.9 °F 85% 30.02 in 10.0 mi Calm Calm - 0.11 in Rain Light Rain
5:56 PM 39.9 °F 37.8 °F 39.0 °F 97% 30.04 in 10.0 mi ESE 3.5 mph - 0.00 in   Overcast
6:56 PM 39.9 °F 37.8 °F 37.9 °F 93% 30.06 in 10.0 mi ESE 3.5 mph - 0.02 in   Overcast
7:56 PM 39.0 °F - 37.9 °F 96% 30.07 in 10.0 mi Calm Calm - N/A   Mostly Cloudy
8:56 PM 37.0 °F - 37.0 °F 100% 30.09 in 7.0 mi Calm Calm - N/A   Mostly Cloudy
9:56 PM 37.0 °F - 36.0 °F 96% 30.11 in 5.0 mi Calm Calm - N/A   Partly Cloudy
10:08 PM 35.6 °F - 35.6 °F 100% 30.11 in 2.0 mi Calm Calm - N/A   Clear
10:17 PM 35.6 °F - 35.6 °F 100% 30.11 in 4.0 mi Calm Calm - N/A   Clear
10:56 PM 35.1 °F - 35.1 °F 100% 30.12 in 4.0 mi Calm Calm - N/A   Clear
11:08 PM 33.8 °F 30.8 °F 33.8 °F 100% 30.12 in 1.8 mi SSW 3.5 mph - N/A   Clear
11:16 PM 33.8 °F - 33.8 °F 100% 30.12 in 1.2 mi Calm Calm - N/A   Clear
11:29 PM 33.8 °F - 33.8 °F 100% 30.12 in 0.5 mi Calm Calm - N/A Fog Fog
11:56 PM 33.1 °F - 33.1 °F 100% 30.15 in 0.5 mi Calm Calm - N/A Fog Fog